Theta_e
349 348 348 349 348 347 347 347 346 345 346 347 347 348 348 348 347 346 347 348 348 349 349 348 347 346 346 346 347 347 347 348 345 340 338 338 337 339 340 341 342 342 342 343 344 343 342 341 340 340 340 340 339 339 339 339 339 340 339 339 338 338 338 339 340 339 341 341 342 342 342 341 341 342 343 344 344 345 344 344 344 344 343 343 342
348 347 347 348 348 347 348 349 348 347 347 347 349 349 349 349 347 346 347 348 348 348 349 348 346 346 346 347 347 347 347 348 346 341 339 340 338 340 341 341 342 342 343 344 345 345 344 343 343 342 343 343 342 341 341 341 340 339 338 339 339 340 341 342 342 342 342 342 343 343 343 343 343 343 344 344 344 344 344 344 344 343 343 343 343
347 346 346 347 347 347 349 349 349 348 348 348 349 349 349 349 348 347 347 348 347 348 348 348 347 346 346 347 346 347 347 348 347 343 340 341 340 340 341 340 341 341 342 344 345 345 345 345 345 345 345 346 345 345 345 345 345 343 343 343 344 344 345 345 345 345 345 345 345 345 344 345 344 344 344 344 344 344 344 344 344 343 343 343 342
348 346 346 348 348 348 349 349 349 349 349 348 349 349 349 349 349 347 347 347 347 347 348 348 348 348 348 347 347 347 347 348 348 344 340 340 342 341 341 342 342 341 342 344 346 346 346 346 346 346 347 347 347 347 347 347 347 347 346 345 345 346 346 346 346 346 347 346 346 345 345 345 345 344 344 344 344 344 345 344 344 344 344 343 342
349 348 348 349 349 350 349 349 349 349 348 348 349 349 349 349 349 347 347 348 347 347 347 347 348 349 348 348 348 347 347 347 348 346 341 339 340 341 341 342 342 343 343 343 345 346 346 346 347 347 347 347 346 347 347 346 347 347 347 347 346 346 346 346 346 346 346 346 345 346 345 345 345 345 345 344 344 345 345 345 344 344 343 342 342
349 349 349 350 350 350 349 348 349 349 349 349 350 350 349 350 350 348 348 348 347 347 347 347 347 348 348 349 348 348 347 347 347 347 344 341 339 339 340 341 341 341 342 342 342 343 343 344 346 346 346 345 344 345 346 347 348 347 347 347 347 347 346 347 346 346 345 345 345 344 345 345 345 345 345 345 345 345 345 344 343 343 343 342 342
348 348 349 350 350 349 348 348 349 349 350 350 349 350 350 350 350 349 347 348 347 347 346 347 347 347 347 348 349 348 347 347 347 347 347 345 343 340 339 339 340 340 340 340 340 340 340 341 342 343 343 343 342 344 345 347 347 347 347 347 347 347 347 347 346 346 345 345 344 344 344 345 344 344 345 345 345 345 345 344 343 343 342 342 342
348 348 349 349 349 348 348 349 349 350 351 350 349 350 350 349 349 348 347 347 346 347 346 346 347 347 347 347 347 347 347 347 347 347 347 347 346 344 342 340 340 340 340 339 339 339 339 339 339 340 340 341 342 343 344 345 346 346 347 347 346 346 346 346 346 345 345 345 345 344 345 345 344 344 344 344 344 344 345 344 343 343 342 342 341
348 348 348 348 348 349 350 350 350 351 351 350 350 349 349 348 348 348 347 346 346 346 346 347 347 347 347 346 346 347 347 347 347 348 348 346 346 346 345 343 342 342 342 341 340 340 340 340 339 339 338 338 338 339 339 341 344 345 346 346 346 346 346 345 345 345 345 345 345 345 345 345 344 345 344 344 344 343 343 343 343 343 342 341 341
349 349 348 348 348 350 351 351 351 352 352 351 351 350 349 347 348 349 347 346 346 346 346 346 347 346 346 346 346 346 346 347 347 347 346 347 347 346 346 346 345 345 345 344 344 343 343 343 343 341 340 339 338 336 336 336 339 341 342 343 344 345 345 345 346 345 345 345 345 345 344 344 343 344 344 344 343 342 342 342 342 342 341 340 340
349 349 349 349 349 350 351 351 352 353 353 352 352 351 350 348 348 348 347 347 347 346 346 346 346 347 346 346 346 346 346 346 347 347 347 347 347 347 346 346 346 346 347 347 346 346 346 346 346 345 344 344 343 341 339 336 336 338 338 340 341 342 342 343 344 345 345 345 345 344 344 343 342 342 342 342 342 341 341 341 341 341 341 340 340
348 348 348 349 349 350 350 352 353 353 353 352 352 352 351 350 348 347 347 347 347 346 346 346 346 346 346 346 346 346 346 346 347 347 348 348 347 348 347 346 347 347 347 347 347 347 347 347 346 346 346 345 346 345 344 342 342 342 341 340 341 341 341 341 341 342 342 342 343 343 341 341 340 339 338 338 337 337 336 337 337 337 338 338 338
348 348 348 349 350 350 351 352 353 353 353 353 354 354 353 351 348 347 347 346 346 346 346 346 346 346 346 346 346 346 347 347 347 348 348 348 348 348 348 347 347 347 347 347 346 346 345 345 345 345 345 344 345 345 345 344 344 344 344 343 343 342 341 341 341 341 341 341 341 341 339 338 337 335 334 333 332 332 332 332 333 332 331 331 332
349 348 349 350 350 350 350 351 352 353 353 353 354 355 353 351 348 347 346 347 348 347 345 346 346 346 345 345 346 346 346 346 347 348 347 347 348 349 348 348 347 347 347 347 346 345 344 344 344 343 344 343 344 344 344 344 342 342 343 342 342 342 342 343 343 343 343 343 342 340 338 336 334 331 330 329 328 329 329 329 330 329 328 327 327
349 349 350 350 350 350 349 351 351 352 353 353 354 354 352 351 349 347 347 348 348 346 345 345 346 345 345 348 348 348 350 348 346 346 346 347 348 349 349 347 348 347 347 347 346 345 345 344 343 344 343 344 344 344 344 344 343 342 341 340 340 340 340 342 343 343 343 342 341 339 336 333 331 329 327 327 326 326 327 326 326 326 324 324 324
350 350 351 351 351 350 350 351 352 352 352 353 353 353 352 351 350 348 348 349 347 344 345 345 344 345 348 350 346 349 358 352 344 345 346 347 347 347 348 347 347 347 347 346 346 345 345 344 344 344 343 344 343 344 344 345 344 344 342 340 338 337 337 339 340 341 341 341 338 334 332 330 328 328 327 327 327 326 326 325 324 324 323 323 323
349 350 351 352 352 351 351 352 352 353 353 352 352 352 352 351 351 349 349 349 346 344 345 344 344 344 347 348 347 353 358 349 345 347 343 344 346 345 345 346 346 346 346 346 345 345 344 344 344 343 343 343 343 343 343 343 344 344 344 342 338 337 337 338 339 340 340 339 337 334 333 332 331 331 331 330 330 329 329 328 328 327 326 326 325
348 349 350 351 351 352 351 351 353 353 354 353 352 352 352 351 351 350 350 349 347 345 344 344 345 344 344 346 346 349 350 345 348 352 346 342 342 343 342 342 344 344 344 345 343 343 343 343 343 343 342 342 342 342 342 342 342 343 343 343 341 340 340 340 341 341 341 341 340 339 338 338 338 339 339 338 338 337 336 335 335 333 333 332 331
349 349 349 350 352 352 351 352 352 353 354 353 352 353 352 352 351 351 351 349 348 347 345 344 344 345 345 345 344 345 344 345 348 350 349 346 342 341 342 340 341 342 342 342 342 341 342 342 342 342 341 342 342 342 341 341 342 342 343 343 342 343 342 342 343 343 342 342 342 342 342 342 343 344 344 344 344 343 343 342 342 341 340 340 338
350 350 350 349 351 352 352 352 352 353 354 354 352 352 353 353 352 351 351 349 349 349 348 345 344 344 345 345 345 345 343 343 344 344 347 353 350 344 343 342 340 340 340 340 339 339 340 340 341 341 342 341 341 341 341 341 340 341 341 342 342 343 343 343 343 343 343 344 343 343 344 344 344 345 345 345 345 346 346 345 346 345 345 344 344
350 350 351 351 350 351 353 353 352 353 355 355 353 352 353 353 353 352 351 350 349 349 349 347 345 343 342 344 344 344 342 343 344 343 345 353 355 349 344 343 343 341 341 341 340 339 340 340 341 340 340 340 340 341 341 340 341 341 341 341 342 342 342 343 343 343 343 343 345 344 344 345 344 345 345 346 346 346 346 347 346 347 347 347 347
350 349 351 352 351 352 353 352 353 354 355 355 354 353 353 353 354 352 351 350 349 350 350 350 347 343 342 343 344 342 341 342 342 343 344 345 349 347 342 343 345 343 340 340 340 340 340 340 339 339 339 339 339 340 340 340 340 339 339 340 341 340 341 342 341 342 343 343 344 344 344 345 345 345 345 345 347 347 348 349 349 349 349 349 349
349 348 349 351 353 353 353 352 353 354 356 355 354 353 353 354 354 353 352 351 351 351 351 352 350 345 343 345 345 342 342 344 343 343 344 343 346 347 343 342 343 342 340 340 339 339 339 339 340 339 339 339 339 340 339 340 341 340 341 340 339 340 340 341 341 341 343 343 344 346 345 347 347 346 348 348 349 351 351 352 353 352 352 352 352
349 348 347 348 351 352 352 353 354 355 355 356 355 353 354 355 354 353 353 353 353 352 351 352 351 347 346 347 346 343 344 345 344 344 346 346 347 346 342 343 344 342 340 340 340 340 339 340 341 341 341 342 341 343 342 342 343 341 341 341 339 340 339 341 343 344 347 349 350 351 350 350 351 351 353 353 354 355 355 356 356 355 354 354 354
349 348 346 346 347 349 350 351 354 355 355 355 356 356 355 355 354 354 354 353 354 354 351 351 352 349 349 347 345 345 345 344 345 347 349 350 348 346 344 344 344 342 341 342 340 341 341 342 343 343 343 345 343 344 343 342 343 342 342 341 340 342 343 346 349 352 353 354 353 353 353 354 354 355 356 356 357 358 358 357 358 357 356 355 355
347 346 346 346 345 346 347 350 353 355 356 355 355 355 355 355 355 355 355 355 355 355 353 352 352 351 349 348 347 347 347 347 350 350 352 352 350 347 346 343 341 340 338 340 341 341 343 343 344 344 343 344 344 344 345 345 345 345 344 345 345 347 350 352 355 355 354 353 354 354 355 356 357 358 358 358 359 358 359 359 358 357 355 353 352
345 346 345 345 345 344 346 350 353 354 355 355 355 355 355 355 355 355 355 355 355 355 356 355 354 352 350 349 348 347 349 352 353 352 352 353 348 346 345 344 347 345 337 335 334 336 345 344 344 345 343 345 346 345 346 347 347 348 348 349 350 352 354 355 356 355 355 355 356 356 357 357 358 358 359 359 359 359 360 358 356 353 351 349 349
344 344 344 345 345 344 345 347 350 353 354 355 355 354 354 354 354 355 355 355 355 354 355 355 354 353 353 350 348 348 351 354 355 353 353 353 347 344 343 342 349 351 347 348 340 334 341 343 340 343 345 347 349 345 346 348 349 351 352 354 355 355 356 357 356 356 357 357 357 358 359 358 359 359 359 359 360 359 357 354 351 348 348 347 347
342 342 343 344 344 344 345 344 345 349 351 353 354 354 354 353 354 354 354 354 355 354 354 354 355 355 354 352 349 348 351 354 355 355 353 354 349 345 344 342 344 347 349 358 352 336 336 343 342 344 348 350 349 345 346 349 350 353 354 355 357 357 357 357 356 357 357 358 358 359 360 360 360 359 359 360 360 357 353 350 348 347 346 345 343
341 340 340 341 342 343 344 345 344 345 348 350 352 353 353 353 352 353 354 355 355 355 355 354 354 355 355 355 352 349 350 353 355 355 354 354 351 347 347 345 347 349 345 350 354 344 340 348 350 350 353 351 348 346 347 349 350 351 352 354 355 355 356 356 356 358 358 358 359 359 359 359 359 359 360 359 357 352 350 348 346 344 342 340 338
342 340 339 339 340 340 341 344 344 344 345 347 349 352 353 353 352 353 353 354 354 355 354 355 354 355 355 355 354 351 351 351 352 355 355 354 353 351 351 349 349 352 347 347 354 352 349 352 354 354 355 353 349 348 348 348 349 349 348 352 354 354 355 356 356 357 357 358 360 360 359 359 359 359 358 355 352 349 347 345 343 340 338 337 336
341 339 339 339 339 339 340 342 344 344 344 345 347 349 352 353 352 352 354 355 355 354 354 354 354 355 355 355 355 353 352 352 352 354 355 356 355 354 355 354 351 352 352 350 352 353 353 354 354 354 355 353 350 350 350 347 346 346 346 349 353 354 356 357 357 358 358 359 358 358 358 359 358 356 352 350 348 346 344 341 339 336 335 335 335
340 339 339 339 340 340 340 341 343 344 345 344 345 346 349 351 352 352 354 355 356 355 354 354 354 354 355 355 353 353 353 353 353 353 354 355 357 356 356 356 354 353 354 353 351 353 355 354 354 355 354 353 352 352 352 350 346 346 346 347 351 354 357 358 359 360 359 358 357 357 359 357 354 350 349 348 346 344 341 338 336 335 335 335 335
342 342 340 340 339 340 341 342 343 344 344 344 344 345 347 349 350 351 353 355 357 356 355 355 354 355 355 355 353 352 352 353 353 353 354 355 356 356 357 356 356 355 355 355 353 353 354 354 355 355 354 354 353 353 353 353 351 351 350 349 349 354 358 359 359 360 358 357 357 357 355 352 349 348 348 346 344 341 338 336 334 334 335 335 334
343 343 342 340 340 340 340 342 343 344 344 345 345 345 345 346 348 350 351 353 355 356 356 355 354 355 356 356 355 354 352 352 352 352 353 353 355 356 356 356 356 356 356 356 355 354 355 356 355 354 354 354 354 354 354 353 353 353 354 351 349 354 359 359 359 358 357 357 356 352 349 348 348 348 346 343 340 337 335 335 334 335 336 334 332
343 343 342 341 341 341 341 342 343 344 345 345 345 345 344 345 346 348 350 352 353 355 355 355 354 354 355 356 356 355 354 353 351 350 351 351 353 354 355 356 355 355 356 356 356 356 356 356 356 354 355 355 354 356 355 354 352 352 354 353 350 353 358 360 359 356 356 357 352 346 347 348 347 345 342 339 337 336 334 334 335 335 334 332 331
343 343 343 342 342 343 343 343 344 344 345 345 345 345 343 345 346 347 349 351 352 353 353 354 353 353 353 353 353 354 354 352 350 348 349 350 350 352 353 355 355 355 355 356 357 357 357 356 356 355 356 356 356 357 355 354 353 353 354 353 350 352 357 361 359 355 357 357 349 345 347 347 343 341 338 337 336 334 334 334 335 334 331 329 327
342 342 342 343 343 343 343 344 344 344 345 345 345 344 343 344 346 346 348 349 350 352 352 352 353 352 351 350 350 351 352 351 348 346 347 348 348 350 351 353 355 354 355 356 356 357 357 357 356 356 356 356 356 356 354 355 355 355 355 353 351 352 357 361 360 356 358 358 349 346 346 341 338 337 335 335 334 333 334 334 334 332 329 326 323
340 341 342 342 343 344 343 343 344 343 343 343 344 343 344 345 345 347 348 349 349 351 351 352 352 352 351 350 348 348 349 349 348 347 347 348 348 349 349 351 353 355 356 357 356 357 357 357 357 356 357 356 356 356 354 354 355 354 355 355 353 353 356 360 361 356 358 358 350 345 342 338 336 337 335 334 334 333 335 334 332 329 326 322 319
341 341 341 342 342 343 343 343 344 343 342 342 342 343 344 345 345 346 347 349 349 350 350 351 351 351 352 350 348 347 346 347 347 347 348 348 350 352 351 351 352 354 355 355 355 356 356 357 357 356 357 356 356 356 355 355 354 354 355 356 354 354 355 358 359 356 356 358 353 346 342 338 337 336 335 333 334 334 333 332 329 325 321 318 317
344 342 342 342 342 343 343 343 343 342 342 342 341 342 343 344 345 345 346 347 349 350 350 351 352 352 351 351 349 346 345 345 346 347 348 349 350 352 352 352 353 353 353 354 354 355 356 356 357 356 356 356 356 356 355 354 354 354 355 355 354 354 355 356 357 354 354 357 356 349 343 340 336 336 334 333 333 333 331 329 325 320 317 316 316
345 344 344 344 343 344 344 344 344 343 344 344 343 343 343 344 344 344 345 347 348 350 351 352 353 352 352 351 350 348 347 346 345 346 347 347 348 349 350 352 354 353 354 354 355 355 356 356 356 356 356 356 356 356 356 355 354 354 354 354 353 354 355 356 355 353 352 356 357 352 346 340 337 335 333 332 332 332 330 325 320 317 316 316 316
347 346 345 345 345 345 345 346 346 346 346 345 344 344 344 344 344 345 346 347 348 350 351 351 353 352 352 351 351 350 350 349 346 344 344 345 346 347 348 350 352 352 353 355 355 355 356 356 356 356 356 356 356 355 356 355 354 354 354 354 353 354 355 356 356 353 352 354 357 353 347 342 338 335 333 332 332 331 327 321 317 316 316 315 316
348 347 347 346 346 346 346 347 347 346 347 346 345 345 345 345 346 346 347 348 349 350 351 351 352 352 352 352 352 352 351 350 348 346 344 344 345 346 346 347 349 350 352 354 354 355 356 356 356 356 355 356 356 356 356 355 354 354 354 354 354 354 355 355 355 354 353 353 356 354 347 341 337 334 332 332 332 331 325 318 316 317 316 316 316
349 348 348 348 347 347 346 347 347 347 347 346 346 346 345 345 346 347 348 349 350 351 351 351 351 351 352 352 352 352 351 351 351 350 347 346 346 346 346 347 347 348 350 352 353 354 356 356 356 357 356 356 356 355 355 355 355 355 354 354 354 355 356 356 355 354 352 354 357 355 347 341 336 333 333 332 332 330 324 318 317 317 316 316 317
350 349 349 348 348 348 347 347 347 347 348 347 347 347 347 347 348 348 350 350 350 351 352 352 352 352 352 352 352 352 352 351 351 350 348 349 348 349 349 349 348 347 348 350 351 352 354 355 356 356 355 355 356 354 353 354 355 355 354 354 355 355 357 357 356 355 354 355 357 355 348 343 336 333 333 332 331 331 325 319 318 318 317 317 317
351 350 350 349 349 349 348 348 348 348 348 347 348 347 348 348 349 350 351 352 352 352 352 353 352 353 352 352 352 351 352 351 351 350 350 350 350 351 351 351 350 349 349 349 349 350 350 351 353 353 352 352 354 352 351 352 353 354 354 355 355 356 357 357 356 356 356 357 357 353 348 343 337 333 332 332 332 331 327 323 320 318 318 318 317
352 351 351 351 351 350 350 349 349 349 349 349 349 349 349 349 350 350 352 352 353 353 353 353 353 353 353 353 353 352 352 351 351 350 351 352 352 353 353 352 351 351 351 349 349 349 350 350 350 350 350 351 352 351 351 350 351 352 354 355 355 356 357 356 355 355 356 357 356 352 347 343 338 334 332 332 332 330 328 326 321 318 318 318 317
353 353 352 352 352 351 351 351 350 351 350 350 350 350 350 351 350 352 352 352 353 353 353 353 353 353 353 353 353 353 353 352 351 351 351 353 353 353 353 353 353 353 351 349 349 349 350 350 350 351 350 350 351 351 350 350 350 353 354 354 355 356 356 355 355 355 356 356 355 351 346 342 337 333 331 332 332 330 330 328 323 319 318 319 318
353 353 353 353 353 352 352 352 352 352 351 352 351 351 351 352 351 352 352 352 352 353 353 353 353 353 353 353 353 354 353 352 352 351 352 353 353 353 353 353 353 353 352 350 350 351 350 350 350 350 351 350 350 350 349 349 351 353 354 354 356 356 356 355 356 356 355 355 355 351 345 340 337 332 330 332 334 331 331 330 324 319 319 319 318
353 353 354 354 353 354 353 353 353 353 353 353 353 352 353 352 352 352 352 352 352 352 353 353 353 353 353 353 353 353 353 353 353 352 352 353 353 354 353 353 353 353 352 351 352 352 351 351 350 350 351 352 352 351 351 351 353 355 356 356 357 358 357 356 356 355 354 355 355 352 345 340 337 333 329 332 334 332 330 329 324 320 319 319 318
Wind_Speed
6 5 5 4 3 3 3 2 2 2 2 2 2 2 1 1 2 3 4 4 3 1 1 1 0 0 0 1 3 3 3 3 2 1 1 1 2 3 3 3 4 3 3 2 2 2 2 2 2 2 2 2 2 2 2 3 3 3 3 4 4 5 5 6 7 7 7 7 7 8 8 9 9 10 10 11 11 12 12 12 12 12 13 13 12
5 5 5 4 3 3 2 1 1 1 2 2 2 2 2 2 2 3 5 5 4 2 1 1 1 1 1 1 2 2 1 2 2 1 2 1 1 2 2 2 2 3 3 2 2 2 2 3 3 3 2 2 3 3 4 4 5 5 5 5 5 5 6 6 6 7 7 8 8 8 9 9 10 10 11 11 12 12 13 12 12 12 12 12 13
5 5 5 4 3 3 2 2 2 2 2 2 2 2 1 1 2 3 5 5 4 3 2 1 1 1 2 1 1 1 0 1 1 1 3 3 2 1 1 1 2 2 2 1 1 1 1 2 2 2 2 2 3 3 3 4 5 5 6 6 6 6 6 6 7 7 8 8 9 9 9 10 10 11 11 12 12 12 12 12 12 12 12 12 13
4 4 4 4 3 3 3 3 3 3 2 2 2 2 1 1 1 3 4 4 4 4 3 3 2 1 1 1 1 1 1 1 2 1 2 3 3 2 2 2 2 2 2 2 1 1 1 1 2 2 3 3 3 3 4 4 5 6 6 6 6 6 7 7 8 8 9 9 9 10 10 10 11 11 12 12 12 12 12 12 12 12 12 12 13
5 5 4 4 4 4 4 4 4 3 3 2 2 2 2 1 2 3 4 4 5 5 4 4 2 2 2 2 2 1 2 2 2 3 2 2 2 3 3 3 4 4 4 4 4 3 3 3 3 4 4 4 4 4 5 5 6 6 7 7 7 7 8 8 9 9 10 11 11 11 11 11 11 12 12 12 12 12 12 12 12 12 12 12 12
6 6 5 5 5 5 5 5 4 4 3 2 3 2 2 2 2 3 4 4 5 5 5 4 3 3 3 3 3 3 3 3 3 3 3 3 3 3 4 4 4 5 5 5 6 5 5 5 5 5 5 5 5 6 6 6 6 7 8 8 9 9 9 9 10 11 11 12 12 11 11 11 12 12 12 12 12 12 12 12 12 12 12 12 12
7 7 6 6 6 6 5 5 5 4 3 3 3 3 2 2 3 4 4 5 6 5 5 4 3 3 4 4 4 4 4 4 4 4 4 4 4 4 4 4 4 5 5 5 6 6 6 6 6 6 6 6 7 7 7 7 7 8 9 9 10 10 10 11 11 12 12 12 12 12 12 12 12 12 12 12 12 13 13 13 12 12 12 12 12
8 7 6 6 6 6 5 5 6 5 4 3 2 2 2 3 3 3 4 5 6 5 4 4 3 3 4 4 4 4 4 4 4 5 5 5 5 5 5 5 5 5 5 5 5 5 6 6 7 7 7 8 8 8 8 8 8 9 9 10 10 10 11 11 12 12 12 12 12 12 12 13 13 13 13 13 12 13 13 13 12 12 12 12 12
8 7 6 7 6 5 5 5 6 5 4 3 2 1 2 2 2 3 4 5 5 5 4 4 4 4 5 5 5 5 4 4 5 7 7 6 6 6 6 6 6 6 6 6 6 6 6 6 7 7 8 8 9 9 9 9 10 10 10 10 10 10 11 11 12 12 13 12 12 12 13 13 13 13 13 13 13 13 13 13 13 13 14 13 12
9 8 7 7 7 6 5 5 5 4 4 3 2 1 2 2 2 2 4 5 5 5 4 4 4 4 4 5 7 6 6 6 7 8 8 8 8 7 7 7 7 7 7 7 7 7 7 7 7 8 8 9 9 10 10 10 10 10 10 10 10 10 11 11 11 12 13 13 13 13 13 13 13 13 13 13 14 13 13 13 13 14 14 13 12
10 9 8 8 7 6 6 6 5 4 4 3 2 1 1 1 2 2 3 4 4 4 4 5 5 5 5 5 6 7 7 7 8 9 8 9 9 9 8 8 8 8 7 7 7 7 8 8 8 8 8 9 9 10 10 11 11 11 11 11 11 11 11 10 11 11 12 12 13 13 13 14 14 14 13 13 14 14 14 15 14 14 14 14 14
10 10 9 9 8 7 7 6 5 5 4 3 1 1 1 1 2 3 3 3 3 4 4 5 6 6 6 6 6 6 7 8 8 8 8 9 9 10 9 9 9 8 8 7 7 8 8 8 8 8 8 8 8 9 10 10 11 11 10 11 11 11 11 11 11 11 12 12 13 13 13 14 14 15 14 14 14 14 14 15 15 14 14 14 15
11 10 10 9 8 8 8 7 6 5 4 2 1 1 1 2 3 4 3 3 3 3 4 5 6 6 6 6 6 7 7 8 8 8 7 8 9 10 9 9 9 9 9 8 8 8 7 8 8 8 8 8 8 9 9 10 10 10 9 10 10 10 11 11 12 12 13 14 14 14 14 14 15 15 15 15 15 15 15 15 15 15 15 15 15
11 11 10 10 9 9 8 7 6 5 4 2 2 2 2 3 4 3 3 2 2 4 5 5 5 4 4 4 5 6 7 7 7 7 8 9 9 9 9 9 9 9 9 9 9 8 8 8 8 8 9 9 9 10 10 10 9 9 9 10 10 10 11 12 12 13 14 15 15 15 15 15 15 15 15 16 16 16 16 16 16 16 16 16 15
11 11 10 10 9 9 8 7 6 5 4 3 3 2 3 4 4 3 3 2 2 3 4 5 4 1 1 3 3 4 4 3 6 7 7 8 8 8 8 8 8 9 10 10 9 9 9 9 9 10 10 10 11 11 11 11 11 10 10 10 11 11 11 12 13 14 14 15 16 16 16 16 15 16 16 16 16 17 17 17 18 18 17 17 17
12 11 10 10 9 9 8 7 6 5 4 3 3 3 3 4 4 4 3 1 2 2 3 5 4 2 2 1 0 2 1 3 8 8 5 6 7 8 8 9 9 10 11 11 10 11 11 11 12 12 12 12 12 12 13 13 12 12 12 11 11 11 12 12 12 13 14 14 15 15 15 15 15 16 16 16 17 17 17 18 18 18 19 19 19
13 12 11 10 10 9 9 8 7 6 5 4 3 3 4 5 5 4 3 1 2 1 4 4 2 3 2 1 1 1 1 3 7 5 5 6 7 8 9 10 10 11 12 12 11 12 12 12 12 13 13 13 13 13 13 13 13 12 12 11 11 11 11 11 12 12 13 13 14 14 14 15 15 15 16 16 17 17 18 18 19 19 20 20 20
14 13 12 10 10 10 9 8 7 7 6 5 4 4 5 6 5 5 3 1 1 1 3 3 2 4 4 2 1 2 2 3 2 2 6 8 7 9 10 10 11 11 12 12 12 12 12 13 12 12 13 13 13 13 13 13 13 12 12 11 10 10 10 11 12 12 13 13 14 14 14 15 16 16 17 17 18 18 19 19 19 20 20 21 21
14 14 13 12 10 10 9 9 8 7 7 6 5 5 5 5 6 5 4 3 2 2 3 4 3 4 6 7 5 5 5 4 0 1 4 5 8 11 10 9 10 10 11 11 12 12 12 12 12 12 13 13 14 14 13 13 13 13 12 11 11 11 11 11 12 13 14 14 15 16 16 17 17 18 19 19 20 20 20 21 21 21 21 22 22
15 14 14 14 12 11 10 10 9 8 8 7 6 5 4 5 6 6 6 5 3 3 2 3 3 3 4 6 7 7 6 5 2 2 0 2 7 10 10 11 10 10 10 11 11 11 11 11 12 12 13 13 13 13 13 13 13 13 12 12 12 12 13 13 14 15 15 16 17 18 18 19 19 20 20 21 22 22 22 23 23 23 23 23 23
15 15 15 14 14 12 11 11 10 9 8 7 6 6 5 6 6 6 6 6 5 4 3 3 4 4 4 5 6 6 5 3 2 2 0 0 2 4 10 14 13 12 11 9 10 10 11 11 11 12 12 12 13 13 13 13 13 14 13 13 13 14 14 15 16 17 18 18 19 20 20 21 21 22 22 23 24 24 24 24 24 24 24 24 24
16 16 16 15 14 14 13 12 11 9 8 7 6 6 6 6 6 6 7 6 6 5 4 4 3 4 4 5 5 4 3 2 2 2 1 2 1 4 9 10 10 12 10 8 10 10 10 10 10 11 11 12 13 13 14 14 15 15 15 15 15 15 15 16 17 18 19 21 21 22 22 22 23 23 23 23 23 22 22 22 22 23 23 23 24
16 16 17 17 16 15 14 13 12 11 9 7 7 6 6 6 6 7 7 7 7 6 5 4 3 4 4 5 5 4 3 3 5 4 3 3 2 5 9 10 9 11 10 8 9 10 10 10 10 10 11 12 12 13 15 15 16 16 17 17 16 16 16 17 18 20 21 21 22 22 22 21 22 22 21 21 20 19 19 19 20 21 21 21 21
18 18 18 17 17 17 15 15 13 12 10 8 7 6 6 6 6 7 7 7 7 7 7 5 4 4 4 4 4 4 4 5 6 6 6 6 5 5 8 9 8 11 12 9 8 9 9 9 10 10 11 12 13 14 15 15 15 16 15 15 14 15 16 17 18 18 18 19 19 19 18 18 18 17 17 16 16 17 17 18 18 18 18 19 18
21 20 19 18 18 18 17 16 15 13 11 9 8 7 7 7 7 7 7 7 8 8 8 7 5 5 5 4 4 4 4 5 6 7 8 9 7 6 6 5 5 10 12 9 8 8 8 9 10 10 10 11 12 13 13 14 14 14 14 13 13 14 15 15 15 15 16 17 16 15 15 14 14 14 15 15 15 15 16 16 16 16 16 16 15
22 20 18 17 18 18 17 17 16 14 12 10 9 9 8 8 8 7 7 7 8 8 8 7 7 6 6 5 5 4 4 4 5 7 8 10 10 8 5 4 5 7 8 7 8 7 6 7 8 8 10 11 12 13 14 15 15 14 14 14 14 13 13 13 13 14 14 14 13 13 13 14 15 15 15 15 15 15 14 14 14 14 15 15 14
21 20 18 17 17 17 17 17 17 15 13 12 10 10 10 10 9 8 8 8 8 9 9 8 7 7 8 7 6 5 4 4 5 6 8 10 11 8 5 3 3 4 6 6 7 6 5 6 5 6 10 11 12 14 15 15 15 14 14 13 13 12 12 12 13 13 13 13 13 14 15 15 16 16 16 15 14 13 13 13 14 14 14 14 13
20 20 19 18 17 17 17 18 17 16 15 13 12 11 11 12 11 10 9 9 9 9 9 8 8 7 8 8 7 6 5 4 5 6 8 9 10 5 3 2 1 2 4 4 5 4 6 7 4 5 10 11 12 13 15 15 14 14 13 13 13 12 12 12 12 12 12 13 14 15 15 16 16 16 15 14 13 12 13 13 14 14 13 13 13
21 21 20 19 18 18 18 18 17 17 15 14 13 12 12 13 13 12 10 9 9 9 9 9 8 8 8 8 8 7 6 5 4 6 7 9 8 5 1 1 2 2 1 2 3 3 5 9 7 6 10 11 12 13 15 15 14 14 14 13 13 13 13 12 12 12 12 13 14 15 16 17 16 15 13 12 12 12 13 13 13 13 13 13 14
24 22 21 21 20 19 18 18 18 17 16 15 14 13 13 13 14 13 11 10 10 10 10 10 9 9 8 8 8 8 7 6 5 5 7 8 7 5 3 4 4 2 0 1 2 3 6 9 10 10 12 13 12 14 15 16 15 15 14 14 14 14 13 12 11 12 12 13 15 16 17 17 15 13 12 13 13 13 12 12 12 12 14 15 16
27 25 23 22 22 21 20 19 19 18 17 16 15 15 14 14 14 15 13 12 12 12 11 11 10 9 9 8 8 9 9 9 8 7 8 8 6 5 5 6 6 4 3 1 1 3 7 11 12 13 14 14 14 15 16 17 16 16 15 14 14 13 12 11 11 12 13 14 15 16 17 16 14 13 14 14 13 11 11 11 12 14 15 17 17
29 27 26 24 23 22 21 21 20 19 18 18 17 16 16 15 15 16 15 14 15 14 13 13 12 11 10 10 9 9 10 11 10 9 8 7 6 6 6 7 6 6 5 3 3 7 11 13 14 14 15 15 15 16 18 18 17 16 16 16 15 13 12 12 12 13 13 13 15 16 15 14 14 15 15 12 10 9 10 11 13 15 16 16 16
30 28 28 27 25 24 23 22 22 21 20 19 18 17 17 17 17 17 17 16 17 16 15 15 14 14 13 13 12 11 11 12 12 11 9 8 7 7 7 7 7 6 7 6 7 10 14 15 15 15 15 16 17 17 19 19 18 17 18 17 15 13 12 12 13 13 13 14 16 15 14 15 15 14 11 9 9 9 11 13 15 16 16 16 16
31 30 30 29 28 27 26 25 24 23 22 21 19 18 18 19 18 18 19 19 19 18 18 17 17 16 16 16 15 13 13 13 13 13 12 11 9 9 8 8 8 8 8 9 8 10 15 18 18 17 16 17 18 18 18 19 19 19 19 19 16 13 12 12 12 13 14 15 15 14 14 15 13 10 9 8 9 11 13 15 16 17 17 17 19
32 31 31 30 30 29 28 27 26 25 24 23 22 21 20 20 20 20 21 21 21 21 21 20 19 18 18 19 18 17 16 16 15 14 14 14 13 12 11 11 11 10 9 10 10 10 14 18 18 18 18 19 19 18 18 18 18 19 19 19 16 13 12 11 11 13 15 15 14 14 13 12 9 8 8 8 10 12 15 16 17 17 17 19 21
32 31 31 31 31 30 30 29 28 27 27 26 25 24 23 22 21 21 21 22 23 23 23 23 22 21 21 21 22 21 20 19 18 17 16 15 15 15 14 13 13 12 11 11 12 12 13 16 19 19 19 19 19 18 18 18 18 19 19 18 15 12 10 9 11 13 14 13 14 13 11 9 7 7 7 9 11 13 15 16 16 17 19 21 23
34 32 31 30 30 31 31 31 30 29 29 28 27 26 26 25 24 24 23 23 24 24 25 25 24 24 24 24 24 23 22 22 21 20 18 16 16 16 16 15 14 14 13 13 13 13 14 16 19 20 19 19 19 18 18 18 19 20 18 16 14 11 9 7 10 13 12 12 14 11 8 7 6 6 8 10 12 13 14 15 16 18 21 23 25
35 34 32 31 31 31 32 32 31 30 29 29 28 28 28 28 27 26 26 26 26 26 26 26 25 25 25 25 25 24 23 23 23 22 20 19 18 17 17 17 16 15 14 14 14 14 15 17 18 19 20 19 19 18 17 18 20 21 18 15 14 12 9 8 11 13 10 11 13 9 7 7 6 8 10 11 12 13 14 15 17 19 21 23 25
35 34 33 32 33 33 33 33 32 31 30 30 29 29 29 29 29 29 28 28 28 28 28 28 27 26 25 24 24 24 24 24 23 22 21 20 19 18 18 18 17 17 16 16 15 15 16 17 17 19 19 19 19 19 18 18 19 18 16 14 14 12 10 9 12 12 9 10 11 7 6 7 7 9 10 11 11 12 13 15 17 19 22 23 24
34 35 34 34 33 33 34 34 33 33 32 31 31 31 31 30 30 30 30 30 30 30 30 30 29 27 26 24 24 24 24 25 24 23 22 21 20 19 19 18 18 18 17 17 17 16 17 17 18 18 18 19 19 19 19 18 17 16 14 13 14 13 10 10 12 12 9 8 10 7 5 6 7 9 10 10 11 11 13 15 17 19 21 22 23
34 34 34 33 32 32 33 34 34 33 33 33 33 32 32 32 31 32 31 31 31 31 31 31 30 29 28 26 25 24 24 25 24 24 23 22 21 21 20 19 18 18 17 17 17 17 17 17 18 18 17 19 20 19 19 18 17 16 15 14 13 12 10 11 13 11 7 7 9 8 6 6 7 9 10 11 11 11 13 15 17 19 21 21 22
34 34 33 32 32 32 32 33 33 33 34 34 34 33 33 33 33 32 32 32 32 32 31 31 31 30 29 28 27 26 25 25 25 25 24 23 23 23 23 21 20 19 18 18 18 18 17 17 18 17 16 19 20 18 18 19 18 18 17 14 13 12 11 11 12 9 7 7 9 9 8 7 8 10 11 11 10 11 13 15 17 18 20 20 21
34 34 33 32 32 32 32 33 33 34 35 35 35 35 34 34 33 33 33 33 32 32 32 31 31 31 30 29 28 27 27 26 26 26 25 25 24 24 24 23 22 21 20 20 20 20 19 19 19 18 17 19 21 20 19 20 20 19 17 13 12 12 11 9 9 9 8 8 9 9 8 7 8 9 10 10 9 10 12 14 15 17 18 20 21
34 34 33 33 33 33 32 33 33 34 36 36 36 35 35 34 34 34 34 33 33 32 32 32 32 31 30 30 29 28 28 27 27 26 25 25 24 24 25 24 23 22 21 22 22 22 21 20 20 20 20 21 23 22 21 22 21 19 16 14 13 13 12 10 11 11 10 9 10 10 8 7 7 8 8 8 8 9 10 12 14 16 18 19 20
34 34 34 35 34 34 33 33 34 35 36 37 37 36 35 35 34 34 34 34 33 33 33 33 32 32 31 30 30 29 28 28 27 26 26 25 24 24 24 23 23 23 22 22 23 23 23 23 22 23 23 23 24 24 24 22 21 19 17 16 16 15 14 13 13 13 11 10 10 10 9 8 7 7 8 8 7 7 8 10 13 15 17 18 19
34 34 35 35 35 35 35 35 35 36 37 38 37 37 36 35 34 34 34 34 34 34 33 33 33 33 32 31 31 30 29 28 28 27 26 25 25 24 24 23 23 23 22 22 22 22 22 23 25 26 25 23 24 24 24 23 22 21 20 19 18 16 15 14 14 13 12 11 10 10 10 9 8 8 8 8 7 6 6 8 12 14 15 17 18
35 35 36 36 36 36 36 36 36 37 38 39 38 37 37 36 35 34 34 34 34 34 34 34 34 34 33 33 32 32 31 30 29 28 27 26 25 25 25 24 24 23 23 22 21 21 21 22 24 25 24 23 22 21 21 21 21 21 21 20 18 16 15 15 14 13 12 11 10 9 9 9 9 8 9 9 8 6 5 7 10 12 13 16 17
34 35 35 35 36 36 36 36 36 37 39 40 39 38 38 36 35 34 34 35 35 35 35 34 34 35 34 34 33 33 33 32 30 29 28 27 26 26 25 25 25 25 25 24 22 21 22 22 23 24 24 23 22 20 19 19 18 18 18 18 17 16 14 13 12 12 12 12 10 11 11 11 10 9 9 10 8 6 5 6 8 10 12 15 17
31 33 35 36 36 36 36 36 37 38 40 40 40 39 39 37 35 34 35 35 35 35 35 35 35 35 35 35 35 34 34 33 32 31 29 27 27 26 26 26 26 26 27 25 24 23 23 23 24 24 24 23 22 21 20 19 18 17 16 17 17 15 13 11 9 10 11 11 9 10 12 11 10 8 9 10 10 9 7 6 6 7 10 14 16
32 33 34 35 36 36 36 37 38 39 40 40 39 39 39 37 36 35 36 36 36 36 36 36 36 36 36 36 36 35 35 35 33 32 31 29 28 28 28 27 27 28 28 27 26 25 24 23 23 23 23 22 21 20 19 18 18 17 17 18 17 15 13 11 10 10 11 11 10 11 11 11 10 8 8 9 10 11 10 7 5 4 7 12 15
37 37 36 35 35 36 37 38 38 39 40 39 38 39 39 38 37 36 36 36 36 36 36 36 36 36 37 37 36 36 36 36 34 34 33 31 30 30 29 28 28 29 30 28 27 26 25 24 23 23 22 21 19 18 17 16 17 17 18 18 17 17 17 15 12 9 8 8 10 12 12 13 11 9 8 7 6 8 9 6 4 3 4 10 13
Wind_Direction
159 161 169 163 154 146 135 123 123 133 144 142 134 133 141 156 163 169 180 180 174 145 77 79 291 289 6 29 12 14 32 35 28 95 123 99 114 118 131 131 135 139 132 118 98 70 57 57 66 68 58 42 38 41 28 16 15 7 0 353 349 352 353 351 348 346 348 351 350 349 346 344 344 340 337 337 339 344 347 349 351 352 351 351 354
176 173 180 182 174 166 162 169 174 182 190 194 189 166 162 177 178 172 178 185 188 183 117 89 129 225 243 289 323 345 30 38 22 211 206 196 161 149 158 156 154 157 157 144 121 85 54 42 37 39 28 11 11 14 11 7 6 1 355 351 351 352 347 343 342 342 342 342 341 339 338 337 336 334 333 335 338 341 343 345 347 349 349 348 350
193 184 182 185 190 194 201 215 220 216 212 217 211 193 187 198 199 182 179 185 196 194 175 138 138 216 254 287 304 319 17 22 358 244 217 216 217 210 192 194 208 200 198 182 143 113 50 25 9 2 347 344 353 357 355 352 350 349 349 348 346 341 335 332 332 333 333 332 333 331 332 331 330 330 331 333 335 336 339 340 343 347 346 345 346
210 207 199 194 202 213 225 231 229 228 228 228 220 220 231 236 225 198 186 191 201 202 190 168 171 260 273 318 330 317 357 345 335 320 230 223 234 251 257 255 253 253 256 265 268 271 291 302 304 306 311 320 326 330 330 333 330 330 336 335 331 325 322 323 324 324 324 324 324 324 326 326 326 328 330 332 334 335 336 337 340 343 341 341 344
226 231 232 231 228 229 234 233 233 235 234 232 233 243 251 261 244 209 202 205 202 202 197 184 210 267 266 316 324 316 332 332 331 339 324 264 261 268 271 276 276 277 279 281 281 278 277 275 280 290 297 304 309 309 311 316 316 318 321 319 317 315 314 316 317 318 318 320 320 322 323 324 325 326 328 330 332 333 333 334 335 336 336 337 339
239 242 249 252 245 237 230 225 227 227 223 231 239 245 253 262 250 227 219 209 199 200 198 194 227 261 266 302 311 306 308 318 327 334 345 339 310 293 284 283 284 287 293 293 288 283 280 279 280 284 288 296 301 300 302 307 309 311 313 311 311 312 313 312 313 315 316 318 320 322 322 323 324 324 326 327 327 327 327 329 330 330 333 334 333
244 245 252 251 240 231 222 213 214 218 223 234 244 252 251 249 246 236 223 203 197 199 199 207 231 256 271 291 299 299 297 304 315 319 329 334 330 320 305 297 293 293 297 297 296 291 288 289 290 291 292 296 298 298 298 299 300 302 304 306 307 308 309 311 313 315 316 317 316 316 317 318 319 319 321 322 322 322 322 324 325 327 328 328 327
240 240 244 236 223 217 209 203 209 218 227 233 254 267 248 241 240 230 215 201 202 208 214 228 244 263 275 282 289 294 293 298 314 321 321 320 325 326 320 314 308 303 301 300 301 300 297 296 295 297 299 300 300 299 298 295 293 293 295 299 302 303 304 306 309 310 311 313 313 312 313 314 316 318 319 319 318 317 318 320 322 323 321 319 318
228 229 227 219 210 202 197 201 212 218 222 227 247 273 240 226 223 215 209 204 211 223 233 247 263 275 279 280 285 289 292 298 308 315 317 321 323 321 322 322 315 309 307 306 306 305 305 304 302 301 302 304 305 304 303 299 295 292 293 296 299 301 301 303 307 308 309 311 312 312 313 313 315 318 318 317 316 314 315 317 319 318 317 315 312
215 215 213 207 203 201 203 208 217 220 221 219 215 246 230 207 198 196 203 208 219 233 242 260 274 281 283 288 289 285 287 290 294 301 308 320 326 321 315 315 314 311 308 311 311 309 310 311 310 308 310 312 313 314 312 309 306 302 300 299 298 299 300 301 304 307 309 311 312 312 311 311 311 311 310 309 308 307 306 307 310 312 313 312 308
206 206 204 202 202 206 211 212 219 224 224 218 210 223 221 204 184 183 202 215 228 240 250 269 281 281 283 292 293 287 286 286 287 295 304 315 324 323 316 310 308 308 309 314 312 312 314 313 314 316 318 319 317 317 316 315 316 314 313 311 308 308 307 305 304 304 306 308 308 307 308 308 307 306 304 303 302 301 299 300 302 302 303 304 303
202 203 200 199 201 207 212 215 219 222 219 215 211 203 212 219 181 173 201 222 239 252 261 277 285 285 287 290 292 293 292 290 290 295 305 314 321 321 319 314 309 308 312 316 315 313 314 315 317 320 323 324 322 318 315 315 316 316 319 320 321 320 319 318 317 314 313 310 308 308 308 309 310 310 310 308 306 304 303 302 302 301 300 298 297
201 202 200 199 202 209 214 217 217 218 219 215 202 184 212 210 182 173 192 217 245 259 265 275 281 290 300 298 297 297 294 293 293 295 305 316 321 320 318 317 314 313 314 315 318 318 318 319 318 318 322 325 326 324 320 317 315 314 316 320 322 323 324 325 325 324 323 321 318 316 315 314 314 314 313 313 312 311 310 309 309 308 306 302 300
200 200 200 202 205 211 215 216 217 223 230 228 210 193 200 199 184 175 188 224 270 268 259 256 261 283 318 326 325 320 302 293 295 298 306 315 319 318 316 315 316 317 315 313 317 320 321 320 315 315 318 320 323 325 324 323 319 315 312 314 318 319 321 323 325 326 325 324 323 321 320 318 317 316 315 314 313 312 312 312 312 311 311 308 305
201 200 201 204 208 212 215 217 220 226 234 230 212 193 193 197 187 180 198 253 295 286 246 228 233 234 26 2 355 349 325 315 325 320 314 313 314 314 312 312 315 315 313 311 313 315 313 311 310 312 314 315 318 320 321 324 324 320 315 314 315 317 319 320 321 323 323 323 322 322 321 320 320 319 317 316 315 314 313 313 312 312 312 311 310
202 202 203 206 210 213 217 220 222 227 234 235 223 208 199 202 199 193 212 268 326 336 181 189 219 201 96 49 77 3 344 335 339 338 331 314 310 314 312 311 313 312 309 309 311 310 308 306 306 309 312 315 317 319 321 323 324 322 320 319 318 319 319 320 321 321 322 322 322 322 322 322 321 320 320 319 318 317 316 316 316 315 315 314 313
206 208 208 211 213 215 219 220 222 229 236 239 229 223 214 211 211 204 215 284 344 39 149 164 226 222 190 85 63 10 262 311 335 341 345 331 317 318 316 313 313 310 307 307 308 308 308 307 308 309 312 315 317 319 321 323 324 324 324 324 321 320 320 321 323 323 323 323 323 324 323 323 323 322 321 320 320 319 319 319 319 318 317 315 314
213 215 216 217 215 218 221 220 224 231 238 239 226 221 217 216 217 212 218 257 309 251 186 198 238 235 240 260 345 344 298 326 346 327 338 345 344 334 326 320 314 308 306 307 309 310 309 308 308 309 311 314 317 319 321 322 324 324 325 327 325 322 321 322 323 324 324 325 324 324 323 323 322 322 322 321 321 320 320 320 320 319 318 316 315
218 220 222 222 219 220 223 224 226 230 235 235 223 215 210 214 217 217 223 235 256 264 229 228 239 246 250 250 269 299 309 322 302 295 336 341 340 339 336 327 315 309 310 311 313 312 311 309 308 310 311 314 316 319 322 322 323 324 324 326 325 324 324 323 323 323 323 324 323 323 322 322 322 323 323 322 322 321 320 320 320 320 319 318 316
222 223 224 224 224 223 224 225 225 227 232 231 225 219 212 214 216 219 226 233 248 265 260 251 252 268 262 250 266 293 309 316 290 286 342 299 322 337 343 339 328 320 320 320 320 316 313 312 310 313 315 317 320 322 324 325 326 327 326 326 324 323 324 324 324 324 324 324 323 322 321 321 322 322 322 322 321 321 320 320 320 320 319 319 318
226 226 226 226 226 225 226 228 227 226 228 229 226 221 216 217 220 222 224 229 245 259 269 275 265 275 285 273 278 290 303 329 318 285 175 296 307 321 338 344 340 337 338 332 329 325 319 316 313 316 319 323 326 326 327 329 329 330 331 331 328 326 326 325 324 324 324 324 323 322 321 321 321 321 322 321 321 320 321 321 322 322 322 322 321
227 227 227 227 227 228 229 230 230 228 227 228 224 220 218 219 223 224 221 227 242 251 262 279 277 273 282 282 291 301 303 335 352 336 344 346 305 299 327 342 335 334 348 351 341 338 332 328 325 326 328 330 332 331 331 330 329 329 329 328 325 325 325 325 325 325 325 325 324 322 321 321 321 321 322 323 323 324 325 326 326 325 324 323 322
230 228 227 227 228 230 231 231 232 230 228 227 224 221 221 221 224 225 224 230 238 243 250 267 273 264 273 281 292 315 324 340 352 354 348 337 320 304 323 340 332 327 345 353 344 345 346 346 345 343 340 338 336 332 328 326 324 323 322 322 321 320 321 322 324 325 326 326 324 324 323 323 323 324 326 327 328 330 333 334 332 329 328 326 325
232 231 229 227 227 229 230 231 231 231 230 228 226 226 225 226 228 229 232 235 238 240 240 248 260 260 275 289 296 313 327 337 340 341 334 326 315 297 317 343 342 330 338 345 344 349 355 358 356 352 348 342 337 333 329 329 329 327 326 325 324 323 323 324 325 327 327 328 328 327 327 329 332 334 337 338 340 341 342 339 336 333 331 329 327
233 234 232 229 229 230 230 230 229 230 232 231 230 230 229 231 233 237 241 244 248 247 239 239 247 256 274 289 296 311 324 331 328 329 328 321 309 289 307 337 330 325 334 339 341 349 356 360 360 358 355 352 350 349 348 348 349 347 343 338 335 333 331 331 332 333 334 333 333 334 339 345 350 353 353 352 350 348 343 338 334 332 330 329 327
236 236 236 234 234 234 233 232 231 231 234 235 235 233 234 236 239 247 255 258 260 255 247 243 243 251 262 272 285 301 315 322 321 325 326 320 305 280 287 327 317 320 333 333 335 342 345 351 4 14 11 8 8 7 4 3 1 357 352 346 344 342 341 342 341 341 341 343 348 356 2 4 3 359 355 351 347 342 337 333 331 332 332 330 329
237 238 239 239 239 238 237 235 234 236 237 239 239 238 238 239 244 254 265 273 269 257 251 249 249 254 256 259 268 279 296 319 325 321 317 322 318 290 269 313 331 326 334 337 341 346 343 346 4 19 15 14 13 10 7 6 3 358 354 353 352 353 354 351 350 351 354 360 8 10 7 2 356 350 346 342 339 335 333 333 335 336 335 334 336
236 237 239 241 242 243 241 239 238 239 239 241 243 244 242 241 246 255 267 277 274 262 257 256 257 261 257 255 257 262 280 312 329 322 315 327 338 325 252 259 24 354 334 342 350 352 358 357 353 359 9 11 9 9 8 7 6 2 360 0 360 0 359 358 360 2 3 7 8 4 356 351 346 342 340 338 337 336 337 339 341 342 342 343 346
235 235 238 242 245 246 246 245 244 241 240 240 243 249 249 246 247 252 263 275 275 268 265 266 266 265 261 257 253 255 268 291 319 326 321 328 343 1 355 318 14 23 345 336 327 323 356 4 360 353 0 4 3 5 7 8 8 4 2 3 3 2 1 2 4 5 6 5 359 352 347 344 342 340 340 339 341 342 344 346 349 349 350 349 348
236 236 238 242 245 247 248 249 248 245 243 242 244 249 254 253 250 249 257 269 273 272 268 268 270 268 263 258 253 251 258 272 293 312 320 323 327 337 343 329 335 347 354 296 301 311 343 352 349 345 348 353 357 359 2 7 7 2 2 3 2 1 359 359 4 5 0 354 348 345 343 340 340 341 341 341 342 346 350 354 355 354 351 348 347
239 239 240 243 246 248 249 249 250 249 248 248 248 250 254 258 255 251 253 262 268 272 269 263 265 267 265 260 255 252 255 263 273 290 309 318 313 306 305 305 310 317 312 275 251 310 325 331 334 339 342 344 349 353 356 3 4 0 2 2 360 0 356 355 359 354 345 343 343 342 340 339 340 341 340 340 344 353 359 359 356 352 349 347 347
241 242 243 245 247 249 250 251 250 250 252 252 252 252 254 258 258 253 253 260 265 269 268 261 258 262 265 264 259 255 256 261 266 273 288 302 298 288 285 286 286 292 297 281 254 290 310 319 325 332 337 337 342 349 352 356 359 357 359 359 357 356 353 351 350 344 342 344 343 340 339 338 338 338 341 347 358 5 3 356 353 351 349 348 348
241 243 244 245 247 248 251 252 251 250 251 252 253 254 254 256 257 255 254 258 264 266 266 261 256 257 262 266 265 262 261 263 265 266 270 278 282 279 277 278 278 281 286 282 275 291 305 314 319 324 330 333 336 344 349 350 352 352 354 356 355 354 353 350 348 348 350 347 342 339 337 335 337 341 351 4 10 6 358 354 352 350 349 351 353
241 243 245 246 247 247 249 252 253 252 252 252 253 253 254 254 254 254 253 256 262 264 263 261 258 258 260 265 268 269 269 268 268 267 264 264 266 269 272 276 280 281 282 283 282 286 299 307 313 316 323 328 329 336 344 345 345 346 348 352 351 353 356 354 354 356 352 346 342 338 334 337 342 352 5 11 5 358 353 350 349 349 351 354 354
241 243 245 246 247 247 248 251 252 253 252 252 252 252 253 253 253 253 252 254 257 260 261 262 262 260 260 263 267 269 271 270 270 269 266 263 261 264 270 273 278 282 283 284 281 280 291 300 306 311 317 321 322 329 336 338 338 340 343 348 350 353 359 0 359 354 348 348 346 339 339 347 354 3 7 3 357 352 348 346 346 349 352 353 352
241 243 244 246 246 245 246 248 250 252 252 251 251 251 252 253 253 253 253 253 254 257 260 262 264 264 262 262 264 267 269 269 269 269 268 267 264 265 269 272 276 280 283 284 283 283 286 291 298 306 313 316 317 324 330 331 334 336 340 347 349 351 360 1 356 351 349 352 351 345 350 359 1 5 3 355 352 348 343 343 346 350 351 350 350
238 241 242 243 244 243 244 246 248 249 250 249 249 251 252 253 253 253 254 254 255 256 258 261 263 265 265 264 265 266 266 266 267 268 268 269 268 266 267 269 273 278 281 282 283 285 282 283 292 301 308 311 314 320 325 325 328 332 338 347 350 351 351 347 349 351 351 356 356 353 358 5 3 2 357 352 349 344 342 345 347 349 350 350 351
234 237 238 240 241 242 243 244 245 247 248 248 249 251 253 253 253 253 253 254 255 256 257 259 261 263 265 266 266 266 264 263 265 266 267 268 269 268 266 267 271 275 277 280 282 284 282 281 287 293 300 306 309 313 320 322 323 326 333 344 353 354 342 326 339 349 352 358 359 354 356 4 4 358 354 351 347 343 343 347 347 348 351 352 352
232 233 234 236 239 240 242 243 244 246 247 247 249 251 252 252 252 252 252 252 254 255 256 257 258 260 262 264 265 264 263 263 264 265 267 268 268 268 268 268 271 272 274 277 279 280 280 280 282 286 293 299 301 306 313 317 319 323 330 337 344 350 339 320 330 341 346 358 1 354 352 360 356 351 349 344 342 344 345 346 347 350 353 355 355
230 231 232 234 236 238 241 242 244 245 246 246 248 249 249 250 251 252 252 251 252 253 255 256 256 257 260 263 264 263 262 262 263 265 266 267 268 269 270 270 271 271 271 274 275 275 275 275 277 282 287 291 294 299 306 310 315 321 328 328 329 337 335 320 324 332 333 350 359 349 339 348 347 344 342 338 341 347 348 348 351 354 356 358 358
230 231 232 232 233 235 238 241 243 244 244 245 246 247 247 247 248 250 251 251 250 251 252 254 255 256 258 260 262 263 263 263 263 265 266 266 267 267 269 271 271 271 271 271 270 269 270 270 273 278 281 283 288 293 299 305 309 313 319 320 321 329 329 317 320 326 323 335 345 337 329 338 340 337 335 334 341 348 350 352 357 359 0 0 1
231 231 231 231 231 233 235 238 240 240 241 243 245 246 247 247 247 248 248 249 249 249 250 250 252 254 256 259 261 263 264 265 265 265 266 266 266 265 267 268 269 269 268 268 267 266 266 266 270 275 275 278 285 288 293 301 305 307 310 313 319 323 320 315 319 322 318 323 331 329 323 324 327 328 328 329 337 348 353 359 4 4 3 2 3
231 231 231 231 231 232 233 235 237 237 239 242 244 246 246 247 247 246 246 248 248 248 249 249 251 253 255 258 261 262 264 264 265 266 266 266 266 266 266 266 266 266 265 265 266 266 264 263 267 272 270 274 284 289 291 296 299 300 303 307 313 316 312 307 309 313 317 321 324 321 312 307 312 315 318 322 334 348 358 6 10 7 4 4 5
231 231 231 231 231 232 232 233 235 236 238 241 243 245 246 246 245 244 245 246 246 246 248 249 251 253 255 257 260 262 263 264 265 266 267 267 267 267 267 267 265 265 264 263 264 265 264 263 265 269 270 274 282 287 289 291 293 295 296 298 305 308 302 291 291 301 311 316 318 315 299 291 299 304 307 314 330 350 2 7 9 8 6 6 6
229 230 231 231 232 232 231 232 234 236 238 241 243 244 245 245 245 243 243 243 244 245 247 249 251 253 254 256 258 260 264 265 265 265 265 266 268 268 269 268 266 265 264 263 263 265 266 265 264 268 273 276 279 287 291 289 287 287 286 290 300 303 297 290 290 298 304 305 309 309 292 279 283 291 297 303 319 343 359 4 6 6 6 7 7
229 229 230 231 231 232 231 232 234 236 238 241 242 242 243 244 244 242 241 241 243 244 246 248 250 252 254 256 257 260 264 265 265 264 264 265 267 268 269 269 269 269 268 267 266 265 266 266 265 268 275 277 281 290 294 288 283 282 282 287 295 297 294 292 292 294 294 292 296 297 285 272 270 278 285 289 304 328 346 358 2 4 7 9 9
229 230 230 230 230 231 232 232 233 236 238 240 242 242 242 243 243 241 240 239 240 243 245 247 248 251 253 255 257 259 262 264 265 265 264 265 266 267 268 269 271 273 273 272 272 271 271 271 270 273 277 280 286 294 296 290 285 284 282 283 286 288 288 288 288 289 288 287 284 276 268 264 262 265 273 278 287 305 326 351 0 2 8 14 15
233 232 231 231 231 230 231 232 232 235 238 240 240 241 242 242 241 239 238 238 238 240 243 245 247 250 252 252 254 257 260 263 264 265 264 264 263 264 265 267 271 273 275 276 276 276 276 276 276 277 279 282 286 291 292 290 286 282 279 277 276 276 278 281 284 283 282 283 272 254 252 261 261 256 261 268 274 288 306 338 358 4 12 20 22
240 236 233 233 233 232 231 231 231 234 238 240 240 240 241 240 238 236 235 235 236 238 241 244 246 249 251 251 253 254 257 261 263 264 264 261 259 259 261 265 268 270 274 277 277 277 277 278 278 280 281 283 285 286 286 284 280 275 268 264 266 267 265 266 273 275 276 279 263 239 241 254 255 249 250 256 263 273 289 318 347 5 20 26 27
241 243 241 237 234 234 232 232 232 234 237 239 239 239 240 239 236 234 234 234 234 236 240 243 245 247 250 252 252 252 254 258 262 264 263 259 256 256 258 260 262 265 271 276 276 276 278 279 280 280 281 282 284 284 282 279 275 268 258 258 264 264 258 256 262 268 271 268 251 232 231 242 245 241 239 243 253 262 271 295 327 357 26 30 29
230 238 242 241 237 235 234 234 234 234 237 239 240 239 240 238 236 234 233 231 231 233 237 240 243 245 248 250 252 252 253 257 261 263 262 259 256 256 257 256 255 260 269 273 273 275 278 279 280 281 281 283 285 283 279 274 270 265 259 259 263 262 259 259 257 257 255 245 236 229 227 233 237 235 230 227 242 260 263 276 303 320 18 30 30